Location: La Oliva
(42.2466°N, 2.9955°E)
Time: 10:08:02
(UTC+00:00)

Ariane Rocket - Pass Details

Date: 22 April 2021
Orbit: 760 x 770 km, 98.7° (Epoch: 10 May)

Event Time Altitude Azimuth Distance (km) Brightness Sun altitude
Exits shadow 19:18:22 - 141° (SE) 2,592 5.2 -7.9°
Reaches altitude 10° 19:19:10 10° 138° (SE) 2,288 4.9 -8.0°
Maximum altitude 19:23:53 42° 69° (ENE) 1,086 3.5 -8.8°
Drops below altitude 10° 19:28:37 10° 0° (N) 2,301 5.8 -9.6°
Sets 19:31:01 0° 354° (N) 3,231 6.7 -10.0°
